Regional Weather Roundup
Issued by NWS

Home | Current Version | Previous Version | Text Only | Print | Product List | Glossary On
Versions: 1 2 3 4 5 6 7 8 9 10 11 12 13 14 15 16 17 18 19 20 21 22 23 24 25 26 27
000
ASUS45 KREV 181010
RWRNV
NEVADA REGIONAL WEATHER ROUNDUP
NATIONAL WEATHER SERVICE RENO NV
200 AM PST SAT NOV 18 2017

NOTE: "FAIR" INDICATES FEW OR NO CLOUDS BELOW 12,000 FEET WITH NO
SIGNIFICANT WEATHER AND/OR OBSTRUCTIONS TO VISIBILITY.

NVZ001-003-004-181100-
WESTERN NEVADA

CITY           SKY/WX    TMP DP  RH WIND       PRES   REMARKS
RENO           PTCLDY    29  22  75 W3        30.32S
CARSON CITY    FAIR      25  23  93 CALM      30.33S
MINDEN         FAIR      23  19  86 E3        30.32F
SLIDE MTN        N/A     25  23  93 MISG        N/A
PYRAMID LAKE     N/A     37 N/A N/A S8          N/A
FALLON         PTCLDY    26  18  71 SE7       30.34S
LOVELOCK       MOCLDY    16  11  80 CALM      30.36R
HAWTHORNE      CLEAR     32  23  69 S6        30.34S
$$

NVZ002-CAZ072-073-181100-
NORTHERN AND CENTRAL SIERRA

CITY           SKY/WX    TMP DP  RH WIND       PRES   REMARKS
S. LAKE TAHOE  PTCLDY    22  19  89 S5        30.27S
TRUCKEE        PTCLDY    19  18  93 CALM      30.29S
SQUAW VLY 8000   N/A     23  10  58 CALM        N/A
SUSANVILLE     CLEAR    N/A N/A N/A W3        30.32
BLUE CANYON    CLEAR     39  14  36 NE3       30.21F
MAMMOTH LAKES  FAIR      21  17  84 CALM      30.31S
$$

NVZ030-031-036-181100-
NORTHERN NEVADA

CITY           SKY/WX    TMP DP  RH WIND       PRES   REMARKS
ELKO           MOCLDY    19  14  81 S6        30.39R
WINNEMUCCA     PTCLDY    27  21  78 NE9       30.37S
WENDOVER       CLEAR     33  14  45 NW3       30.40R
$$

NVZ035-037-181100-
CENTRAL NEVADA

CITY           SKY/WX    TMP DP  RH WIND       PRES   REMARKS
ELY            CLOUDY    11   8  88 S10       30.38R WCI  -3
EUREKA           N/A     19  14  81 S8        30.37R
$$

NVZ013-014-181100-
SOUTH CENTRAL NEVADA

CITY           SKY/WX    TMP DP  RH WIND       PRES   REMARKS
TONOPAH        CLOUDY    25  12  58 N13       30.36S
$$

NVZ017-020-022-181100-
SOUTHERN NEVADA

CITY           SKY/WX    TMP DP  RH WIND       PRES   REMARKS
LAS VEGAS      CLEAR     53  13  20 N16       30.28R
N. LAS VEGAS   CLEAR     51  12  21 N13G23    30.28R
NELLIS AFB     PTCLDY    52  14  22 W5        30.29R
HENDERSON      CLEAR     50  13  22 NE9       30.30R
MERCURY        CLEAR     41  15  35 NE18      30.30S
$$




USA.gov is the U.S. government's official web portal to all federal, state and local government web resources and services.